Year,Month,Day,Hour,Minute,Value (Times are PST for windspeed in km/hr)
2012,01,24,00,00,11.70
2012,01,24,00,01,11.80
2012,01,24,00,02,9.40
2012,01,24,00,03,10.30
2012,01,24,00,04,5.20
2012,01,24,00,05,9.00
2012,01,24,00,06,8.40
2012,01,24,00,07,9.50
2012,01,24,00,08,10.60
2012,01,24,00,09,10.60
2012,01,24,00,10,9.30
2012,01,24,00,11,9.80
2012,01,24,00,12,9.60
2012,01,24,00,13,9.30
2012,01,24,00,14,9.90
2012,01,24,00,15,10.00
2012,01,24,00,16,8.80
2012,01,24,00,17,8.90
2012,01,24,00,18,7.10
2012,01,24,00,19,6.40
2012,01,24,00,20,6.70
2012,01,24,00,21,5.70
2012,01,24,00,22,6.90
2012,01,24,00,23,10.80
2012,01,24,00,24,6.60
2012,01,24,00,25,8.40
2012,01,24,00,26,6.90
2012,01,24,00,27,5.10
2012,01,24,00,28,4.80
2012,01,24,00,29,6.10
2012,01,24,00,30,6.90
2012,01,24,00,31,8.20
2012,01,24,00,32,7.50
2012,01,24,00,33,6.60
2012,01,24,00,34,6.90
2012,01,24,00,35,8.60
2012,01,24,00,36,9.40
2012,01,24,00,37,8.10
2012,01,24,00,38,8.70
2012,01,24,00,39,7.40
2012,01,24,00,40,6.50
2012,01,24,00,41,6.60
2012,01,24,00,42,7.40
2012,01,24,00,43,7.60
2012,01,24,00,44,8.40
2012,01,24,00,45,8.50
2012,01,24,00,46,8.40
2012,01,24,00,47,8.60
2012,01,24,00,48,9.00
2012,01,24,00,49,7.70
2012,01,24,00,50,9.20
2012,01,24,00,51,8.50
2012,01,24,00,52,7.80
2012,01,24,00,53,7.70
2012,01,24,00,54,8.10
2012,01,24,00,55,7.00
2012,01,24,00,56,6.60
2012,01,24,00,57,6.70
2012,01,24,00,58,6.20
2012,01,24,00,59,9.00
2012,01,24,01,00,7.60
2012,01,24,01,01,5.10
2012,01,24,01,02,6.40
2012,01,24,01,03,9.40
2012,01,24,01,04,8.30
2012,01,24,01,05,7.70
2012,01,24,01,06,8.20
2012,01,24,01,07,7.30
2012,01,24,01,08,7.30
2012,01,24,01,09,7.00
2012,01,24,01,10,6.50
2012,01,24,01,11,6.10
2012,01,24,01,12,7.20
2012,01,24,01,13,6.70
2012,01,24,01,14,6.40
2012,01,24,01,15,6.00
2012,01,24,01,16,4.60
2012,01,24,01,17,3.50
2012,01,24,01,18,2.80
2012,01,24,01,19,2.00
2012,01,24,01,20,2.90
2012,01,24,01,21,1.70
2012,01,24,01,22,1.00
2012,01,24,01,23,2.90
2012,01,24,01,24,5.00
2012,01,24,01,25,2.20
2012,01,24,01,26,2.50
2012,01,24,01,27,4.60
2012,01,24,01,28,5.70
2012,01,24,01,29,3.50
2012,01,24,01,30,3.40
2012,01,24,01,31,3.60
2012,01,24,01,32,3.90
2012,01,24,01,33,6.70
2012,01,24,01,34,5.20
2012,01,24,01,35,4.40
2012,01,24,01,36,6.00
2012,01,24,01,37,5.80
2012,01,24,01,38,5.10
2012,01,24,01,39,3.80
2012,01,24,01,40,3.50
2012,01,24,01,41,3.80
2012,01,24,01,42,5.50
2012,01,24,01,43,4.20
2012,01,24,01,44,3.90
2012,01,24,01,45,4.10
2012,01,24,01,46,3.10
2012,01,24,01,47,2.10
2012,01,24,01,48,1.20
2012,01,24,01,49,4.00
2012,01,24,01,50,6.70
2012,01,24,01,51,4.30
2012,01,24,01,52,4.10
2012,01,24,01,53,2.50
2012,01,24,01,54,7.20
2012,01,24,01,55,4.80
2012,01,24,01,56,6.30
2012,01,24,01,57,7.80
2012,01,24,01,58,4.30
2012,01,24,01,59,6.70
2012,01,24,02,00,5.70
2012,01,24,02,01,6.60
2012,01,24,02,02,8.80
2012,01,24,02,03,8.50
2012,01,24,02,04,8.10
2012,01,24,02,05,8.70
2012,01,24,02,06,6.10
2012,01,24,02,07,5.60
2012,01,24,02,08,10.30
2012,01,24,02,09,6.70
2012,01,24,02,10,4.70
2012,01,24,02,11,4.80
2012,01,24,02,12,6.60
2012,01,24,02,13,5.60
2012,01,24,02,14,6.00
2012,01,24,02,15,5.70
2012,01,24,02,16,8.00
2012,01,24,02,17,7.70
2012,01,24,02,18,8.90
2012,01,24,02,19,8.10
2012,01,24,02,20,7.20
2012,01,24,02,21,10.10
2012,01,24,02,22,13.40
2012,01,24,02,23,14.10
2012,01,24,02,24,12.60
2012,01,24,02,25,13.30
2012,01,24,02,26,13.40
2012,01,24,02,27,12.00
2012,01,24,02,28,9.50
2012,01,24,02,29,9.30
2012,01,24,02,30,10.60
2012,01,24,02,31,12.90
2012,01,24,02,32,13.10
2012,01,24,02,33,13.60
2012,01,24,02,34,11.30
2012,01,24,02,35,11.50
2012,01,24,02,36,11.00
2012,01,24,02,37,12.20
2012,01,24,02,38,10.90
2012,01,24,02,39,11.60
2012,01,24,02,40,12.70
2012,01,24,02,41,15.30
2012,01,24,02,42,14.60
2012,01,24,02,43,12.80
2012,01,24,02,44,11.40
2012,01,24,02,45,15.10
2012,01,24,02,46,15.10
2012,01,24,02,47,16.30
2012,01,24,02,48,13.10
2012,01,24,02,49,16.30
2012,01,24,02,50,13.00
2012,01,24,02,51,10.90
2012,01,24,02,52,7.20
2012,01,24,02,53,10.00
2012,01,24,02,54,9.00
2012,01,24,02,55,13.60
2012,01,24,02,56,14.00
2012,01,24,02,57,18.20
2012,01,24,02,58,12.00
2012,01,24,02,59,10.80
2012,01,24,03,00,14.30
2012,01,24,03,01,13.10
2012,01,24,03,02,10.00
2012,01,24,03,03,8.40
2012,01,24,03,04,10.10
2012,01,24,03,05,9.70
2012,01,24,03,06,8.30
2012,01,24,03,07,7.40
2012,01,24,03,08,10.40
2012,01,24,03,09,13.50
2012,01,24,03,10,11.10
2012,01,24,03,11,12.70
2012,01,24,03,12,12.20
2012,01,24,03,13,14.60
2012,01,24,03,14,14.30
2012,01,24,03,15,12.50
2012,01,24,03,16,16.00
2012,01,24,03,17,16.70
2012,01,24,03,18,16.60
2012,01,24,03,19,15.80
2012,01,24,03,20,13.40
2012,01,24,03,21,12.90
2012,01,24,03,22,10.20
2012,01,24,03,23,9.70
2012,01,24,03,24,8.50
2012,01,24,03,25,9.80
2012,01,24,03,26,6.90
2012,01,24,03,27,8.10
2012,01,24,03,28,7.70
2012,01,24,03,29,4.70
2012,01,24,03,30,3.90
2012,01,24,03,31,4.00
2012,01,24,03,32,3.00
2012,01,24,03,33,2.70
2012,01,24,03,34,4.70
2012,01,24,03,35,5.20
2012,01,24,03,36,6.50
2012,01,24,03,37,8.20
2012,01,24,03,38,8.90
2012,01,24,03,39,6.10
2012,01,24,03,40,7.30
2012,01,24,03,41,5.30
2012,01,24,03,42,5.40
2012,01,24,03,43,5.30
2012,01,24,03,44,5.90
2012,01,24,03,45,5.10
2012,01,24,03,46,4.70
2012,01,24,03,47,5.80
2012,01,24,03,48,6.00
2012,01,24,03,49,6.80
2012,01,24,03,50,5.80
2012,01,24,03,51,7.10
2012,01,24,03,52,8.60
2012,01,24,03,53,8.30
2012,01,24,03,54,6.70
2012,01,24,03,55,6.90
2012,01,24,03,56,10.30
2012,01,24,03,57,8.10
2012,01,24,03,58,12.50
2012,01,24,03,59,19.20
2012,01,24,04,00,10.90
2012,01,24,04,01,13.40
2012,01,24,04,02,10.80
2012,01,24,04,03,13.30
2012,01,24,04,04,17.00
2012,01,24,04,05,16.40
2012,01,24,04,06,17.40
2012,01,24,04,07,16.10
2012,01,24,04,08,17.10
2012,01,24,04,09,10.40
2012,01,24,04,10,12.90
2012,01,24,04,11,15.80
2012,01,24,04,12,11.70
2012,01,24,04,13,17.90
2012,01,24,04,14,13.30
2012,01,24,04,15,18.30
2012,01,24,04,16,19.00
2012,01,24,04,17,14.40
2012,01,24,04,18,12.60
2012,01,24,04,19,11.40
2012,01,24,04,20,9.70
2012,01,24,04,21,12.80
2012,01,24,04,22,10.60
2012,01,24,04,23,7.70
2012,01,24,04,24,13.30
2012,01,24,04,25,10.30
2012,01,24,04,26,10.70
2012,01,24,04,27,7.10
2012,01,24,04,28,8.70
2012,01,24,04,29,13.50
2012,01,24,04,30,13.70
2012,01,24,04,31,19.90
2012,01,24,04,32,16.10
2012,01,24,04,33,10.50
2012,01,24,04,34,13.10
2012,01,24,04,35,13.00
2012,01,24,04,36,18.10
2012,01,24,04,37,21.20
2012,01,24,04,38,18.50
2012,01,24,04,39,19.80
2012,01,24,04,40,19.20
2012,01,24,04,41,12.10
2012,01,24,04,42,17.30
2012,01,24,04,43,15.90
2012,01,24,04,44,22.10
2012,01,24,04,45,19.60
2012,01,24,04,46,22.40
2012,01,24,04,47,22.10
2012,01,24,04,48,15.70
2012,01,24,04,49,20.20
2012,01,24,04,50,23.60
2012,01,24,04,51,19.50
2012,01,24,04,52,13.40
2012,01,24,04,53,18.70
2012,01,24,04,54,17.60
2012,01,24,04,55,16.70
2012,01,24,04,56,17.50
2012,01,24,04,57,19.80
2012,01,24,04,58,20.30
2012,01,24,04,59,23.90
2012,01,24,05,00,18.40
2012,01,24,05,01,19.50
2012,01,24,05,02,22.20
2012,01,24,05,03,20.50
2012,01,24,05,04,18.80
2012,01,24,05,05,10.60
2012,01,24,05,06,13.10
2012,01,24,05,07,16.10
2012,01,24,05,08,21.30
2012,01,24,05,09,16.40
2012,01,24,05,10,14.20
2012,01,24,05,11,14.60
2012,01,24,05,12,14.60
2012,01,24,05,13,19.20
2012,01,24,05,14,13.40
2012,01,24,05,15,15.00
2012,01,24,05,16,16.10
2012,01,24,05,17,14.20
2012,01,24,05,18,17.50
2012,01,24,05,19,20.40
2012,01,24,05,20,14.40
2012,01,24,05,21,10.60
2012,01,24,05,22,15.20
2012,01,24,05,23,18.50
2012,01,24,05,24,15.40
2012,01,24,05,25,16.00
2012,01,24,05,26,16.30
2012,01,24,05,27,16.80
2012,01,24,05,28,14.40
2012,01,24,05,29,16.70
2012,01,24,05,30,19.10
2012,01,24,05,31,17.40
2012,01,24,05,32,19.60
2012,01,24,05,33,19.20
2012,01,24,05,34,17.10
2012,01,24,05,35,16.90
2012,01,24,05,36,17.50
2012,01,24,05,37,16.60
2012,01,24,05,38,15.90
2012,01,24,05,39,17.20
2012,01,24,05,40,17.80
2012,01,24,05,41,18.60
2012,01,24,05,42,18.90
2012,01,24,05,43,17.50
2012,01,24,05,44,17.90
2012,01,24,05,45,15.90
2012,01,24,05,46,16.90
2012,01,24,05,47,15.10
2012,01,24,05,48,16.20
2012,01,24,05,49,15.90
2012,01,24,05,50,15.70
2012,01,24,05,51,16.10
2012,01,24,05,52,12.80
2012,01,24,05,53,16.90
2012,01,24,05,54,21.60
2012,01,24,05,55,23.50
2012,01,24,05,56,21.80
2012,01,24,05,57,13.40
2012,01,24,05,58,16.30
2012,01,24,05,59,20.90
2012,01,24,06,00,18.40
2012,01,24,06,01,16.60
2012,01,24,06,02,15.40
2012,01,24,06,03,18.70
2012,01,24,06,04,21.70
2012,01,24,06,05,16.40
2012,01,24,06,06,14.50
2012,01,24,06,07,17.90
2012,01,24,06,08,14.70
2012,01,24,06,09,15.90
2012,01,24,06,10,15.80
2012,01,24,06,11,13.70
2012,01,24,06,12,12.60
2012,01,24,06,13,18.20
2012,01,24,06,14,16.60
2012,01,24,06,15,12.20
2012,01,24,06,16,13.90
2012,01,24,06,17,15.40
2012,01,24,06,18,16.70
2012,01,24,06,19,17.10
2012,01,24,06,20,20.30
2012,01,24,06,21,20.60
2012,01,24,06,22,20.20
2012,01,24,06,23,19.80
2012,01,24,06,24,22.20
2012,01,24,06,25,20.40
2012,01,24,06,26,17.00
2012,01,24,06,27,17.60
2012,01,24,06,28,18.50
2012,01,24,06,29,13.60
2012,01,24,06,30,13.30
2012,01,24,06,31,17.00
2012,01,24,06,32,19.40
2012,01,24,06,33,16.70
2012,01,24,06,34,16.80
2012,01,24,06,35,15.70
2012,01,24,06,36,16.50
2012,01,24,06,37,16.30
2012,01,24,06,38,12.50
2012,01,24,06,39,15.20
2012,01,24,06,40,11.70
2012,01,24,06,41,13.30
2012,01,24,06,42,12.50
2012,01,24,06,43,13.70
2012,01,24,06,44,12.50
2012,01,24,06,45,13.10
2012,01,24,06,46,18.20
2012,01,24,06,47,13.60
2012,01,24,06,48,14.90
2012,01,24,06,49,12.60
2012,01,24,06,50,15.60
2012,01,24,06,51,15.20
2012,01,24,06,52,12.60
2012,01,24,06,53,18.10
2012,01,24,06,54,18.80
2012,01,24,06,55,17.80
2012,01,24,06,56,12.30
2012,01,24,06,57,14.60
2012,01,24,06,58,13.60
2012,01,24,06,59,17.20
2012,01,24,07,00,16.30
2012,01,24,07,01,17.40
2012,01,24,07,02,12.70
2012,01,24,07,03,11.50
2012,01,24,07,04,14.60
2012,01,24,07,05,17.30
2012,01,24,07,06,17.40
2012,01,24,07,07,14.30
2012,01,24,07,08,16.50
2012,01,24,07,09,14.80
2012,01,24,07,10,16.20
2012,01,24,07,11,14.20
2012,01,24,07,12,10.30
2012,01,24,07,13,15.70
2012,01,24,07,14,21.70
2012,01,24,07,15,20.60
2012,01,24,07,16,16.90
2012,01,24,07,17,14.40
2012,01,24,07,18,19.80
2012,01,24,07,19,14.60
2012,01,24,07,20,19.50
2012,01,24,07,21,20.60
2012,01,24,07,22,19.10
2012,01,24,07,23,23.30
2012,01,24,07,24,22.20
2012,01,24,07,25,19.30
2012,01,24,07,26,16.40
2012,01,24,07,27,17.20
2012,01,24,07,28,17.90
2012,01,24,07,29,20.00
2012,01,24,07,30,9.10
2012,01,24,07,31,12.70
2012,01,24,07,32,13.30
2012,01,24,07,33,13.30
2012,01,24,07,34,13.90
2012,01,24,07,35,17.30
2012,01,24,07,36,17.50
2012,01,24,07,37,15.30
2012,01,24,07,38,17.00
2012,01,24,07,39,13.70
2012,01,24,07,40,15.70
2012,01,24,07,41,15.50
2012,01,24,07,42,14.50
2012,01,24,07,43,13.50
2012,01,24,07,44,15.60
2012,01,24,07,45,19.10
2012,01,24,07,46,16.10
2012,01,24,07,47,19.20
2012,01,24,07,48,17.90
2012,01,24,07,49,17.80
2012,01,24,07,50,16.70
2012,01,24,07,51,15.10
2012,01,24,07,52,13.00
2012,01,24,07,53,10.40
2012,01,24,07,54,14.60
2012,01,24,07,55,16.30
2012,01,24,07,56,13.80
2012,01,24,07,57,12.30
2012,01,24,07,58,10.50
2012,01,24,07,59,12.60
2012,01,24,08,00,16.40
2012,01,24,08,01,17.50
2012,01,24,08,02,13.30
2012,01,24,08,03,10.30
2012,01,24,08,04,8.40
2012,01,24,08,05,14.90
2012,01,24,08,06,13.30
2012,01,24,08,07,10.90
2012,01,24,08,08,16.10
2012,01,24,08,09,9.80
2012,01,24,08,10,12.20
2012,01,24,08,11,13.10
2012,01,24,08,12,16.40
2012,01,24,08,13,16.10
2012,01,24,08,14,16.00
2012,01,24,08,15,11.70
2012,01,24,08,16,14.90
2012,01,24,08,17,14.60
2012,01,24,08,18,14.50
2012,01,24,08,19,14.00
2012,01,24,08,20,13.80
2012,01,24,08,21,14.40
2012,01,24,08,22,14.30
2012,01,24,08,23,12.30
2012,01,24,08,24,13.50
2012,01,24,08,25,13.90
2012,01,24,08,26,13.30
2012,01,24,08,27,13.70
2012,01,24,08,28,11.00
2012,01,24,08,29,12.70
2012,01,24,08,30,11.00
2012,01,24,08,31,7.00
2012,01,24,08,32,9.00
2012,01,24,08,33,12.10
2012,01,24,08,34,9.40
2012,01,24,08,35,8.80
2012,01,24,08,36,8.40
2012,01,24,08,37,10.40
2012,01,24,08,38,14.10
2012,01,24,08,39,14.20
2012,01,24,08,40,14.60
2012,01,24,08,41,13.50
2012,01,24,08,42,11.10
2012,01,24,08,43,14.70
2012,01,24,08,44,13.30
2012,01,24,08,45,13.00
2012,01,24,08,46,10.20
2012,01,24,08,47,11.80
2012,01,24,08,48,16.00
2012,01,24,08,49,11.40
2012,01,24,08,50,10.50
2012,01,24,08,51,14.10
2012,01,24,08,52,14.40
2012,01,24,08,53,10.10
2012,01,24,08,54,13.90
2012,01,24,08,55,15.50
2012,01,24,08,56,14.10
2012,01,24,08,57,12.50
2012,01,24,08,58,12.40
2012,01,24,08,59,11.40
2012,01,24,09,00,14.20
2012,01,24,09,01,9.30
2012,01,24,09,02,13.40
2012,01,24,09,03,10.40
2012,01,24,09,04,11.40
2012,01,24,09,05,14.40
2012,01,24,09,06,12.40
2012,01,24,09,07,15.20
2012,01,24,09,08,10.40
2012,01,24,09,09,10.90
2012,01,24,09,10,15.40
2012,01,24,09,11,17.60
2012,01,24,09,12,13.50
2012,01,24,09,13,15.60
2012,01,24,09,14,13.20
2012,01,24,09,15,18.60
2012,01,24,09,16,15.30
2012,01,24,09,17,15.00
2012,01,24,09,18,9.30
2012,01,24,09,19,11.10
2012,01,24,09,20,9.60
2012,01,24,09,21,11.10
2012,01,24,09,22,13.10
2012,01,24,09,23,15.50
2012,01,24,09,24,17.10
2012,01,24,09,25,13.30
2012,01,24,09,26,15.50
2012,01,24,09,27,15.40
2012,01,24,09,28,17.70
2012,01,24,09,29,19.20
2012,01,24,09,30,14.40
2012,01,24,09,31,16.00
2012,01,24,09,32,12.80
2012,01,24,09,33,14.60
2012,01,24,09,34,17.60
2012,01,24,09,35,15.30
2012,01,24,09,36,7.80
2012,01,24,09,37,16.40
2012,01,24,09,38,14.90
2012,01,24,09,39,15.00
2012,01,24,09,40,14.10
2012,01,24,09,41,15.80
2012,01,24,09,42,15.80
2012,01,24,09,43,18.50
2012,01,24,09,44,16.60
2012,01,24,09,45,12.60
2012,01,24,09,46,20.10
2012,01,24,09,47,13.20
2012,01,24,09,48,12.80
2012,01,24,09,49,11.50
2012,01,24,09,50,13.50
2012,01,24,09,51,14.50
2012,01,24,09,52,13.60
2012,01,24,09,53,13.50
2012,01,24,09,54,17.30
2012,01,24,09,55,16.20
2012,01,24,09,56,11.50
2012,01,24,09,57,13.50
2012,01,24,09,58,10.90
2012,01,24,09,59,10.50
2012,01,24,10,00,10.90
2012,01,24,10,01,9.30
2012,01,24,10,02,10.20
2012,01,24,10,03,8.90
2012,01,24,10,04,14.90
2012,01,24,10,05,13.70
2012,01,24,10,06,11.50
2012,01,24,10,07,12.10
2012,01,24,10,08,11.70
2012,01,24,10,09,12.80
2012,01,24,10,10,15.00
2012,01,24,10,11,11.20
2012,01,24,10,12,8.50
2012,01,24,10,13,9.00
2012,01,24,10,14,10.80
2012,01,24,10,15,8.70
2012,01,24,10,16,9.60
2012,01,24,10,17,8.70
2012,01,24,10,18,6.70
2012,01,24,10,19,8.60
2012,01,24,10,20,10.20
2012,01,24,10,21,8.40
2012,01,24,10,22,7.70
2012,01,24,10,23,10.30
2012,01,24,10,24,11.10
2012,01,24,10,25,13.70
2012,01,24,10,26,8.50
2012,01,24,10,27,5.70
2012,01,24,10,28,4.90
2012,01,24,10,29,3.80
2012,01,24,10,30,10.90
2012,01,24,10,31,9.00
2012,01,24,10,32,14.20
2012,01,24,10,33,8.60
2012,01,24,10,34,12.90
2012,01,24,10,35,14.20
2012,01,24,10,36,12.10
2012,01,24,10,37,13.80
2012,01,24,10,38,16.20
2012,01,24,10,39,11.50
2012,01,24,10,40,11.20
2012,01,24,10,41,17.20
2012,01,24,10,42,16.80
2012,01,24,10,43,18.30
2012,01,24,10,44,19.30
2012,01,24,10,45,23.30
2012,01,24,10,46,19.70
2012,01,24,10,47,14.70
2012,01,24,10,48,17.40
2012,01,24,10,49,20.30
2012,01,24,10,50,16.70
2012,01,24,10,51,20.90
2012,01,24,10,52,18.70
2012,01,24,10,53,15.40
2012,01,24,10,54,17.70
2012,01,24,10,55,14.40
2012,01,24,10,56,21.60
2012,01,24,10,57,19.20
2012,01,24,10,58,21.30
2012,01,24,10,59,21.40
2012,01,24,11,00,19.60
2012,01,24,11,01,19.50
2012,01,24,11,02,12.20
2012,01,24,11,03,19.40
2012,01,24,11,04,14.60
2012,01,24,11,05,15.20
2012,01,24,11,06,16.40
2012,01,24,11,07,16.00
2012,01,24,11,08,18.30
2012,01,24,11,09,14.40
2012,01,24,11,10,17.90
2012,01,24,11,11,12.40
2012,01,24,11,12,11.90
2012,01,24,11,13,8.00
2012,01,24,11,14,10.90
2012,01,24,11,15,12.70
2012,01,24,11,16,14.90
2012,01,24,11,17,13.40
2012,01,24,11,18,8.90
2012,01,24,11,19,13.00
2012,01,24,11,20,13.70
2012,01,24,11,21,15.70
2012,01,24,11,22,19.80
2012,01,24,11,23,18.50
2012,01,24,11,24,16.30
2012,01,24,11,25,16.40
2012,01,24,11,26,11.40
2012,01,24,11,27,11.70
2012,01,24,11,28,19.70
2012,01,24,11,29,20.80
2012,01,24,11,30,18.70
2012,01,24,11,31,13.90
2012,01,24,11,32,16.00
2012,01,24,11,33,17.00
2012,01,24,11,34,21.60
2012,01,24,11,35,16.20
2012,01,24,11,36,16.40
2012,01,24,11,37,16.50
2012,01,24,11,38,19.30
2012,01,24,11,39,15.90
2012,01,24,11,40,15.40
2012,01,24,11,41,11.00
2012,01,24,11,42,9.00
2012,01,24,11,43,12.60
2012,01,24,11,44,11.90
2012,01,24,11,45,15.80
2012,01,24,11,46,17.40
2012,01,24,11,47,11.30
2012,01,24,11,48,9.40
2012,01,24,11,49,11.30
2012,01,24,11,50,13.90
2012,01,24,11,51,9.00
2012,01,24,11,52,13.80
2012,01,24,11,53,15.00
2012,01,24,11,54,12.80
2012,01,24,11,55,13.50
2012,01,24,11,56,19.30
2012,01,24,11,57,15.90
2012,01,24,11,58,9.30
2012,01,24,11,59,9.70
2012,01,24,12,00,14.30
2012,01,24,12,01,14.90
2012,01,24,12,02,16.80
2012,01,24,12,03,18.70
2012,01,24,12,04,10.00
2012,01,24,12,05,9.10
2012,01,24,12,06,10.90
2012,01,24,12,07,15.10
2012,01,24,12,08,13.40
2012,01,24,12,09,11.30
2012,01,24,12,10,11.00
2012,01,24,12,11,21.80
2012,01,24,12,12,19.10
2012,01,24,12,13,17.90
2012,01,24,12,14,12.60
2012,01,24,12,15,9.90
2012,01,24,12,16,17.20
2012,01,24,12,17,10.90
2012,01,24,12,18,13.60
2012,01,24,12,19,12.50
2012,01,24,12,20,12.80
2012,01,24,12,21,18.30
2012,01,24,12,22,12.00
2012,01,24,12,23,14.10
2012,01,24,12,24,21.40
2012,01,24,12,25,17.50
2012,01,24,12,26,16.40
2012,01,24,12,27,19.50
2012,01,24,12,28,18.20
2012,01,24,12,29,15.50
2012,01,24,12,30,21.40
2012,01,24,12,31,22.20
2012,01,24,12,32,17.00
2012,01,24,12,33,15.20
2012,01,24,12,34,13.30
2012,01,24,12,35,19.90
2012,01,24,12,36,20.30
2012,01,24,12,37,20.50
2012,01,24,12,38,24.50
2012,01,24,12,39,21.20
2012,01,24,12,40,20.40
2012,01,24,12,41,15.50
2012,01,24,12,42,15.40
2012,01,24,12,43,16.70
2012,01,24,12,44,16.30
2012,01,24,12,45,10.70
2012,01,24,12,46,16.80
2012,01,24,12,47,12.60
2012,01,24,12,48,13.20
2012,01,24,12,49,8.80
2012,01,24,12,50,12.00
2012,01,24,12,51,10.90
2012,01,24,12,52,13.90
2012,01,24,12,53,16.30
2012,01,24,12,54,13.20
2012,01,24,12,55,17.00
2012,01,24,12,56,14.40
2012,01,24,12,57,15.90
2012,01,24,12,58,18.50
2012,01,24,12,59,20.10
2012,01,24,13,00,11.30
2012,01,24,13,01,20.60
2012,01,24,13,02,9.70
2012,01,24,13,03,15.40
2012,01,24,13,04,16.90
2012,01,24,13,05,15.60
2012,01,24,13,06,17.50
2012,01,24,13,07,28.20
2012,01,24,13,08,23.20
2012,01,24,13,09,21.50
2012,01,24,13,10,27.40
2012,01,24,13,11,24.60
2012,01,24,13,12,25.80
2012,01,24,13,13,27.50
2012,01,24,13,14,17.20
2012,01,24,13,15,22.50
2012,01,24,13,16,18.70
2012,01,24,13,17,20.00
2012,01,24,13,18,21.20
2012,01,24,13,19,24.50
2012,01,24,13,20,16.40
2012,01,24,13,21,13.80
2012,01,24,13,22,16.50
2012,01,24,13,23,13.50
2012,01,24,13,24,16.20
2012,01,24,13,25,21.70
2012,01,24,13,26,19.30
2012,01,24,13,27,13.90
2012,01,24,13,28,15.70
2012,01,24,13,29,20.60
2012,01,24,13,30,21.50
2012,01,24,13,31,18.20
2012,01,24,13,32,24.10
2012,01,24,13,33,21.30
2012,01,24,13,34,17.30
2012,01,24,13,35,21.20
2012,01,24,13,36,21.10
2012,01,24,13,37,16.40
2012,01,24,13,38,16.00
2012,01,24,13,39,17.40
2012,01,24,13,40,21.30
2012,01,24,13,41,20.70
2012,01,24,13,42,21.60
2012,01,24,13,43,22.50
2012,01,24,13,44,19.80
2012,01,24,13,45,23.30
2012,01,24,13,46,18.90
2012,01,24,13,47,19.20
2012,01,24,13,48,19.90
2012,01,24,13,49,22.10
2012,01,24,13,50,25.00
2012,01,24,13,51,21.20
2012,01,24,13,52,22.70
2012,01,24,13,53,18.90
2012,01,24,13,54,19.40
2012,01,24,13,55,19.50
2012,01,24,13,56,21.80
2012,01,24,13,57,19.20
2012,01,24,13,58,17.30
2012,01,24,13,59,23.70
2012,01,24,14,00,27.80
2012,01,24,14,01,24.50
2012,01,24,14,02,23.30
2012,01,24,14,03,28.20
2012,01,24,14,04,24.50
2012,01,24,14,05,17.20
2012,01,24,14,06,19.90
2012,01,24,14,07,18.90
2012,01,24,14,08,22.40
2012,01,24,14,09,26.50
2012,01,24,14,10,23.50
2012,01,24,14,11,24.40
2012,01,24,14,12,23.50
2012,01,24,14,13,20.20
2012,01,24,14,14,25.50
2012,01,24,14,15,24.30
2012,01,24,14,16,23.40
2012,01,24,14,17,24.80
2012,01,24,14,18,17.40
2012,01,24,14,19,12.20
2012,01,24,14,20,20.50
2012,01,24,14,21,23.30
2012,01,24,14,22,26.70
2012,01,24,14,23,22.50
2012,01,24,14,24,21.00
2012,01,24,14,25,23.30
2012,01,24,14,26,24.40
2012,01,24,14,27,23.70
2012,01,24,14,28,21.80
2012,01,24,14,29,18.50
2012,01,24,14,30,21.00
2012,01,24,14,31,23.20
2012,01,24,14,32,26.60
2012,01,24,14,33,21.60
2012,01,24,14,34,20.60
2012,01,24,14,35,23.70
2012,01,24,14,36,20.50
2012,01,24,14,37,19.10
2012,01,24,14,38,16.30
2012,01,24,14,39,22.00
2012,01,24,14,40,26.00
2012,01,24,14,41,26.00
2012,01,24,14,42,24.10
2012,01,24,14,43,24.00
2012,01,24,14,44,18.20
2012,01,24,14,45,16.70
2012,01,24,14,46,21.10
2012,01,24,14,47,16.70
2012,01,24,14,48,17.50
2012,01,24,14,49,16.70
2012,01,24,14,50,11.10
2012,01,24,14,51,13.20
2012,01,24,14,52,17.70
2012,01,24,14,53,14.50
2012,01,24,14,54,24.00
2012,01,24,14,55,29.00
2012,01,24,14,56,25.40
2012,01,24,14,57,19.80
2012,01,24,14,58,22.30
2012,01,24,14,59,21.50
2012,01,24,15,00,18.80
2012,01,24,15,01,18.20
2012,01,24,15,02,17.00
2012,01,24,15,03,23.80
2012,01,24,15,04,17.70
2012,01,24,15,05,19.20
2012,01,24,15,06,21.70
2012,01,24,15,07,23.60
2012,01,24,15,08,22.60
2012,01,24,15,09,23.40
2012,01,24,15,10,25.00
2012,01,24,15,11,22.50
2012,01,24,15,12,19.20
2012,01,24,15,13,20.70
2012,01,24,15,14,20.30
2012,01,24,15,15,21.60
2012,01,24,15,16,22.90
2012,01,24,15,17,24.50
2012,01,24,15,18,25.10
2012,01,24,15,19,16.00
2012,01,24,15,20,22.00
2012,01,24,15,21,20.70
2012,01,24,15,22,26.50
2012,01,24,15,23,15.70
2012,01,24,15,24,23.40
2012,01,24,15,25,22.40
2012,01,24,15,26,23.40
2012,01,24,15,27,22.80
2012,01,24,15,28,21.50
2012,01,24,15,29,24.40
2012,01,24,15,30,24.10
2012,01,24,15,31,21.90
2012,01,24,15,32,19.80
2012,01,24,15,33,18.10
2012,01,24,15,34,18.90
2012,01,24,15,35,16.30
2012,01,24,15,36,23.10
2012,01,24,15,37,22.80
2012,01,24,15,38,21.60
2012,01,24,15,39,23.00
2012,01,24,15,40,25.00
2012,01,24,15,41,23.00
2012,01,24,15,42,25.10
2012,01,24,15,43,22.00
2012,01,24,15,44,26.20
2012,01,24,15,45,20.40
2012,01,24,15,46,29.00
2012,01,24,15,47,22.40
2012,01,24,15,48,17.80
2012,01,24,15,49,16.70
2012,01,24,15,50,18.00
2012,01,24,15,51,15.40
2012,01,24,15,52,15.70
2012,01,24,15,53,19.90
2012,01,24,15,54,20.20
2012,01,24,15,55,24.30
2012,01,24,15,56,20.90
2012,01,24,15,57,24.30
2012,01,24,15,58,20.60
2012,01,24,15,59,14.80
2012,01,24,16,00,16.00
2012,01,24,16,01,15.80
2012,01,24,16,02,11.40
2012,01,24,16,03,17.90
2012,01,24,16,04,15.90
2012,01,24,16,05,19.00
2012,01,24,16,06,15.20
2012,01,24,16,07,19.10
2012,01,24,16,08,17.60
2012,01,24,16,09,20.80
2012,01,24,16,10,16.20
2012,01,24,16,11,24.30
2012,01,24,16,12,23.30
2012,01,24,16,13,24.40
2012,01,24,16,14,23.80
2012,01,24,16,15,19.70
2012,01,24,16,16,21.80
2012,01,24,16,17,23.60
2012,01,24,16,18,22.80
2012,01,24,16,19,21.60
2012,01,24,16,20,27.10
2012,01,24,16,21,21.10
2012,01,24,16,22,20.20
2012,01,24,16,23,23.90
2012,01,24,16,24,24.00
2012,01,24,16,25,23.10
2012,01,24,16,26,17.10
2012,01,24,16,27,19.60
2012,01,24,16,28,19.50
2012,01,24,16,29,20.90
2012,01,24,16,30,17.30
2012,01,24,16,31,17.40
2012,01,24,16,32,18.50
2012,01,24,16,33,15.80
2012,01,24,16,34,17.70
2012,01,24,16,35,21.30
2012,01,24,16,36,17.50
2012,01,24,16,37,20.30
2012,01,24,16,38,19.60
2012,01,24,16,39,13.30
2012,01,24,16,40,17.90
2012,01,24,16,41,22.80
2012,01,24,16,42,19.00
2012,01,24,16,43,19.70
2012,01,24,16,44,21.60
2012,01,24,16,45,21.20
2012,01,24,16,46,19.10
2012,01,24,16,47,22.10
2012,01,24,16,48,20.20
2012,01,24,16,49,19.40
2012,01,24,16,50,16.30
2012,01,24,16,51,17.80
2012,01,24,16,52,17.10
2012,01,24,16,53,15.90
2012,01,24,16,54,14.50
2012,01,24,16,55,12.00
2012,01,24,16,56,9.00
2012,01,24,16,57,9.40
2012,01,24,16,58,5.30
2012,01,24,16,59,8.40
2012,01,24,17,00,5.90
2012,01,24,17,01,6.90
2012,01,24,17,02,6.80
2012,01,24,17,03,4.40
2012,01,24,17,04,6.40
2012,01,24,17,05,9.40
2012,01,24,17,06,7.70
2012,01,24,17,07,9.70
2012,01,24,17,08,8.40
2012,01,24,17,09,7.30
2012,01,24,17,10,10.40
2012,01,24,17,11,12.20
2012,01,24,17,12,9.30
2012,01,24,17,13,7.20
2012,01,24,17,14,8.20
2012,01,24,17,15,4.70
2012,01,24,17,16,7.50
2012,01,24,17,17,6.00
2012,01,24,17,18,6.40
2012,01,24,17,19,10.40
2012,01,24,17,20,9.70
2012,01,24,17,21,5.10
2012,01,24,17,22,7.30
2012,01,24,17,23,7.10
2012,01,24,17,24,7.60
2012,01,24,17,25,12.50
2012,01,24,17,26,9.80
2012,01,24,17,27,10.60
2012,01,24,17,28,10.50
2012,01,24,17,29,9.50
2012,01,24,17,30,8.40